Time,TemperatureF,DewpointF,PressureIn,WindDirection,WindDirectionDegrees,WindSpeedMPH,WindSpeedGustMPH,Humidity,HourlyPrecipIn,Conditions,Clouds,dailyrainin,SoftwareType,DateUTC
2013-03-02 00:00:00,19.0,18.0,-100.00,North,-999,-999.0,-999.0,92,-99.99,,,-99.99,,2013-03-02 07:00:00,
2013-03-02 00:32:00,19.0,18.0,-100.00,North,-999,-999.0,-999.0,92,-99.99,,,-99.99,,2013-03-02 07:32:00,
2013-03-02 00:42:00,19.0,18.0,-100.00,North,-999,-999.0,-999.0,92,-99.99,,,-99.99,,2013-03-02 07:42:00,
2013-03-02 00:52:00,19.0,18.0,-100.00,North,-999,-999.0,-999.0,92,-99.99,,,-99.99,,2013-03-02 07:52:00,
2013-03-02 01:00:00,19.0,18.0,-100.00,North,-999,-999.0,-999.0,92,-99.99,,,-99.99,,2013-03-02 08:00:00,
2013-03-02 01:32:00,19.0,18.0,-100.00,North,-999,-999.0,-999.0,92,-99.99,,,-99.99,,2013-03-02 08:32:00,
2013-03-02 01:42:00,19.0,18.0,-100.00,North,-999,-999.0,-999.0,92,-99.99,,,-99.99,,2013-03-02 08:42:00,
2013-03-02 01:52:00,19.0,18.0,-100.00,North,-999,-999.0,-999.0,92,-99.99,,,-99.99,,2013-03-02 08:52:00,
2013-03-02 02:00:00,19.0,17.0,-100.00,North,-999,-999.0,-999.0,92,-99.99,,,-99.99,,2013-03-02 09:00:00,
2013-03-02 02:32:00,19.0,17.0,-100.00,North,-999,-999.0,-999.0,92,-99.99,,,-99.99,,2013-03-02 09:32:00,
2013-03-02 02:42:00,19.0,17.0,-100.00,North,-999,-999.0,-999.0,92,-99.99,,,-99.99,,2013-03-02 09:42:00,
2013-03-02 02:52:00,19.0,17.0,-100.00,North,-999,-999.0,-999.0,92,-99.99,,,-99.99,,2013-03-02 09:52:00,
2013-03-02 03:00:00,19.0,17.0,-100.00,North,-999,-999.0,-999.0,92,-99.99,,,-99.99,,2013-03-02 10:00:00,
2013-03-02 03:32:00,19.0,17.0,-100.00,North,-999,-999.0,-999.0,92,-99.99,,,-99.99,,2013-03-02 10:32:00,
2013-03-02 03:43:00,19.0,17.0,-100.00,North,-999,-999.0,-999.0,92,-99.99,,,-99.99,,2013-03-02 10:43:00,
2013-03-02 03:52:00,19.0,17.0,-100.00,North,-999,-999.0,-999.0,92,-99.99,,,-99.99,,2013-03-02 10:52:00,
2013-03-02 05:00:00,19.0,17.0,-100.00,North,-999,-999.0,-999.0,91,-99.99,,,-99.99,,2013-03-02 12:00:00,
2013-03-02 05:33:00,19.0,17.0,-100.00,North,-999,-999.0,-999.0,91,-99.99,,,-99.99,,2013-03-02 12:33:00,
2013-03-02 05:43:00,19.0,17.0,-100.00,North,-999,-999.0,-999.0,91,-99.99,,,-99.99,,2013-03-02 12:43:00,
2013-03-02 05:53:00,19.0,17.0,-100.00,North,-999,-999.0,-999.0,91,-99.99,,,-99.99,,2013-03-02 12:53:00,
2013-03-02 06:00:00,19.0,17.0,-100.00,North,-999,-999.0,-999.0,92,-99.99,,,-99.99,,2013-03-02 13:00:00,
2013-03-02 06:32:00,19.0,17.0,-100.00,North,-999,-999.0,-999.0,92,-99.99,,,-99.99,,2013-03-02 13:32:00,
2013-03-02 06:42:00,19.0,17.0,-100.00,North,-999,-999.0,-999.0,92,-99.99,,,-99.99,,2013-03-02 13:42:00,
2013-03-02 06:52:00,19.0,17.0,-100.00,North,-999,-999.0,-999.0,92,-99.99,,,-99.99,,2013-03-02 13:52:00,
2013-03-02 07:00:00,19.0,17.0,-100.00,North,-999,-999.0,-999.0,92,-99.99,,,-99.99,,2013-03-02 14:00:00,
2013-03-02 07:32:00,19.0,17.0,-100.00,North,-999,-999.0,-999.0,92,-99.99,,,-99.99,,2013-03-02 14:32:00,
2013-03-02 07:42:00,19.0,17.0,-100.00,North,-999,-999.0,-999.0,92,-99.99,,,-99.99,,2013-03-02 14:42:00,
2013-03-02 07:52:00,19.0,17.0,-100.00,North,-999,-999.0,-999.0,92,-99.99,,,-99.99,,2013-03-02 14:52:00,
2013-03-02 08:00:00,20.0,18.0,-100.00,North,-999,-999.0,-999.0,90,-99.99,,,-99.99,,2013-03-02 15:00:00,
2013-03-02 08:32:00,20.0,18.0,-100.00,North,-999,-999.0,-999.0,90,-99.99,,,-99.99,,2013-03-02 15:32:00,
2013-03-02 08:42:00,20.0,18.0,-100.00,North,-999,-999.0,-999.0,90,-99.99,,,-99.99,,2013-03-02 15:42:00,
2013-03-02 08:52:00,20.0,18.0,-100.00,North,-999,-999.0,-999.0,90,-99.99,,,-99.99,,2013-03-02 15:52:00,
2013-03-02 09:00:00,23.0,19.0,-100.00,North,-999,-999.0,-999.0,84,-99.99,,,-99.99,,2013-03-02 16:00:00,
2013-03-02 09:32:00,23.0,19.0,-100.00,North,-999,-999.0,-999.0,84,-99.99,,,-99.99,,2013-03-02 16:32:00,
2013-03-02 09:42:00,23.0,19.0,-100.00,North,-999,-999.0,-999.0,84,-99.99,,,-99.99,,2013-03-02 16:42:00,
2013-03-02 09:52:00,23.0,19.0,-100.00,North,-999,-999.0,-999.0,84,-99.99,,,-99.99,,2013-03-02 16:52:00,
2013-03-02 10:00:00,28.0,21.0,-100.00,North,-999,-999.0,-999.0,73,-99.99,,,-99.99,,2013-03-02 17:00:00,
2013-03-02 10:32:00,28.0,21.0,-100.00,North,-999,-999.0,-999.0,73,-99.99,,,-99.99,,2013-03-02 17:32:00,
2013-03-02 10:42:00,28.0,21.0,-100.00,North,-999,-999.0,-999.0,73,-99.99,,,-99.99,,2013-03-02 17:42:00,
2013-03-02 10:52:00,28.0,21.0,-100.00,North,-999,-999.0,-999.0,73,-99.99,,,-99.99,,2013-03-02 17:52:00,
2013-03-02 11:00:00,40.0,16.0,-100.00,North,-999,-999.0,-999.0,38,-99.99,,,-99.99,,2013-03-02 18:00:00,
2013-03-02 11:32:00,40.0,16.0,-100.00,North,-999,-999.0,-999.0,38,-99.99,,,-99.99,,2013-03-02 18:32:00,
2013-03-02 11:42:00,40.0,16.0,-100.00,North,-999,-999.0,-999.0,38,-99.99,,,-99.99,,2013-03-02 18:42:00,
2013-03-02 11:52:00,40.0,16.0,-100.00,North,-999,-999.0,-999.0,38,-99.99,,,-99.99,,2013-03-02 18:52:00,
2013-03-02 12:00:00,47.0,22.0,-100.00,North,-999,-999.0,-999.0,38,-99.99,,,-99.99,,2013-03-02 19:00:00,
2013-03-02 12:32:00,47.0,22.0,-100.00,North,-999,-999.0,-999.0,38,-99.99,,,-99.99,,2013-03-02 19:32:00,
2013-03-02 12:42:00,47.0,22.0,-100.00,North,-999,-999.0,-999.0,38,-99.99,,,-99.99,,2013-03-02 19:42:00,
2013-03-02 12:52:00,47.0,22.0,-100.00,North,-999,-999.0,-999.0,38,-99.99,,,-99.99,,2013-03-02 19:52:00,
2013-03-02 13:00:00,47.0,13.0,-100.00,North,-999,-999.0,-999.0,24,-99.99,,,-99.99,,2013-03-02 20:00:00,
2013-03-02 13:32:00,47.0,13.0,-100.00,North,-999,-999.0,-999.0,24,-99.99,,,-99.99,,2013-03-02 20:32:00,
2013-03-02 13:42:00,47.0,13.0,-100.00,North,-999,-999.0,-999.0,24,-99.99,,,-99.99,,2013-03-02 20:42:00,
2013-03-02 13:52:00,47.0,13.0,-100.00,North,-999,-999.0,-999.0,24,-99.99,,,-99.99,,2013-03-02 20:52:00,
2013-03-02 14:00:00,44.0,8.0,-100.00,North,-999,-999.0,-999.0,22,-99.99,,,-99.99,,2013-03-02 21:00:00,
2013-03-02 14:32:00,44.0,8.0,-100.00,North,-999,-999.0,-999.0,22,-99.99,,,-99.99,,2013-03-02 21:32:00,
2013-03-02 14:42:00,44.0,8.0,-100.00,North,-999,-999.0,-999.0,22,-99.99,,,-99.99,,2013-03-02 21:42:00,
2013-03-02 14:52:00,44.0,8.0,-100.00,North,-999,-999.0,-999.0,22,-99.99,,,-99.99,,2013-03-02 21:52:00,
2013-03-02 15:00:00,43.0,8.0,-100.00,North,-999,-999.0,-999.0,23,-99.99,,,-99.99,,2013-03-02 22:00:00,
2013-03-02 15:32:00,43.0,8.0,-100.00,North,-999,-999.0,-999.0,23,-99.99,,,-99.99,,2013-03-02 22:32:00,
2013-03-02 15:42:00,43.0,8.0,-100.00,North,-999,-999.0,-999.0,23,-99.99,,,-99.99,,2013-03-02 22:42:00,
2013-03-02 15:52:00,43.0,8.0,-100.00,North,-999,-999.0,-999.0,23,-99.99,,,-99.99,,2013-03-02 22:52:00,
2013-03-02 16:00:00,42.0,11.0,-100.00,North,-999,-999.0,-999.0,27,-99.99,,,-99.99,,2013-03-02 23:00:00,
2013-03-02 16:32:00,42.0,11.0,-100.00,North,-999,-999.0,-999.0,27,-99.99,,,-99.99,,2013-03-02 23:32:00,
2013-03-02 16:42:00,42.0,11.0,-100.00,North,-999,-999.0,-999.0,27,-99.99,,,-99.99,,2013-03-02 23:42:00,
2013-03-02 16:52:00,42.0,11.0,-100.00,North,-999,-999.0,-999.0,27,-99.99,,,-99.99,,2013-03-02 23:52:00,
2013-03-02 17:00:00,42.0,7.0,-100.00,North,-999,-999.0,-999.0,23,-99.99,,,-99.99,,2013-03-03 00:00:00,
2013-03-02 17:32:00,42.0,7.0,-100.00,North,-999,-999.0,-999.0,23,-99.99,,,-99.99,,2013-03-03 00:32:00,
2013-03-02 17:42:00,42.0,7.0,-100.00,North,-999,-999.0,-999.0,23,-99.99,,,-99.99,,2013-03-03 00:42:00,
2013-03-02 17:52:00,42.0,7.0,-100.00,North,-999,-999.0,-999.0,23,-99.99,,,-99.99,,2013-03-03 00:52:00,
2013-03-02 18:00:00,36.0,11.0,-100.00,North,-999,-999.0,-999.0,35,-99.99,,,-99.99,,2013-03-03 01:00:00,
2013-03-02 18:32:00,36.0,11.0,-100.00,North,-999,-999.0,-999.0,35,-99.99,,,-99.99,,2013-03-03 01:32:00,
2013-03-02 18:42:00,36.0,11.0,-100.00,North,-999,-999.0,-999.0,35,-99.99,,,-99.99,,2013-03-03 01:42:00,
2013-03-02 18:52:00,36.0,11.0,-100.00,North,-999,-999.0,-999.0,35,-99.99,,,-99.99,,2013-03-03 01:52:00,
2013-03-02 19:00:00,28.0,11.0,-100.00,North,-999,-999.0,-999.0,47,-99.99,,,-99.99,,2013-03-03 02:00:00,
2013-03-02 19:32:00,28.0,11.0,-100.00,North,-999,-999.0,-999.0,47,-99.99,,,-99.99,,2013-03-03 02:32:00,
2013-03-02 19:42:00,28.0,11.0,-100.00,North,-999,-999.0,-999.0,47,-99.99,,,-99.99,,2013-03-03 02:42:00,
2013-03-02 19:52:00,28.0,11.0,-100.00,North,-999,-999.0,-999.0,47,-99.99,,,-99.99,,2013-03-03 02:52:00,
2013-03-02 22:00:00,32.0,15.0,-100.00,North,-999,-999.0,-999.0,48,-99.99,,,-99.99,,2013-03-03 05:00:00,
2013-03-02 22:32:00,32.0,15.0,-100.00,North,-999,-999.0,-999.0,48,-99.99,,,-99.99,,2013-03-03 05:32:00,
2013-03-02 22:42:00,32.0,15.0,-100.00,North,-999,-999.0,-999.0,48,-99.99,,,-99.99,,2013-03-03 05:42:00,
2013-03-02 22:52:00,32.0,15.0,-100.00,North,-999,-999.0,-999.0,48,-99.99,,,-99.99,,2013-03-03 05:52:00,
2013-03-02 23:00:00,32.0,15.0,-100.00,North,-999,-999.0,-999.0,47,-99.99,,,-99.99,,2013-03-03 06:00:00,
2013-03-02 23:32:00,32.0,15.0,-100.00,North,-999,-999.0,-999.0,47,-99.99,,,-99.99,,2013-03-03 06:32:00,
2013-03-02 23:42:00,32.0,15.0,-100.00,North,-999,-999.0,-999.0,47,-99.99,,,-99.99,,2013-03-03 06:42:00,
2013-03-02 23:52:00,32.0,15.0,-100.00,North,-999,-999.0,-999.0,47,-99.99,,,-99.99,,2013-03-03 06:52:00,